Погода в Самарканде

Погода в Самарканде : погода сейчас, прогноз погоды и архив. Всё, что Вы хотите узнать о погоде в Самарканде!

Поиск расширенной информации на нашем сайте:

Другие новости

Новости СМИ2

Главная страница сайта

Новости сайта

03.07.2017

Напоминаем, что на нашем специализированном сайте Метеоцентр.Азия вы можете получить высокодетализированные автоматические прогнозы погоды по пунктам России, СНГ и мира в авиационном формате (включающие направление и скорость ветра, видимость, явления погоды, количество и форму облачности, нижнюю и верхнюю границу облачности).


Погода в Самарканде - сегодня

Время (UTC), дата Ветер
(°,м/с) 
Видим.   Явления Облачность Т
(°С)
Тd
(°С)
f(%) Тe
(°С)
Pmin
(гПа)
dP
(гПа)
Po
(мм)
O2
(г/м3)
Тmin Tmax R s Состояние
почвы
09 19.07.17 090 (В) 20000 м    1/1 1000 м 
[Cu med, cong]
+32.2 +5 18 +32  1007.6  -1  698  251           
12 19.07.17 090 (В) 20000 м    ясно 
+31.3 +4.5 18 +31  1006.6  -1.2  697  251           
15 19.07.17 070 (В) 20000 м    ясно 
+28.2 +7.1 26 +28  1007.2  -0.1  697  253    +32.6       
18 19.07.17 070 (В) н/о    ясно 
+23.1 +10.4 45 +26  1008.6  0.1  697  257    +32.6       
21 19.07.17 070 (В) н/о    ясно 
+22 +8.6 42 +23  1008  -0.9  696  258           
00 20.07.17 070 (В) 20000 м    ясно 
+20 +7.6 45 +20  1008.4  -0.2  696  260    +1.5       
03 20.07.17 110 (В) 20000 м    ясно 
+23 +7.8 38 +23  1007.9  0.4  696  257  +19.4        сухая 
06 20.07.17 090 (В) 20000 м    ясно 
+29.7 +4.3 20 +30  1005.9  -0.3  696  252  +19.4         
09 20.07.17 090 (В) 20000 м    ясно 
+32.3 +8.5 23 +33  1004.2  -0.8  695  249           
12 20.07.17 090 (В) 20000 м    ясно 
+31.3 +4.1 18 +31  1004.8  0.2  695  251           
15 20.07.17 050 (СВ) 20000 м    ясно 
+28.7 +7.4 26 +29  1004.2  -1.1  695  252    +32.5       
18 20.07.17 090 (В) н/о    ясно 
+24.7 +6.7 32 +25  1005.8  0.4  695  256    +32.5       
21 20.07.17 090 (В) н/о    ясно 
+22.9 +7.1 36 +23  1005.3  -0.9  694  257           
00 21.07.17 090 (В) 20000 м    ясно 
+20.5 +11.1 55 +25  1006  0.1  694  258           
03 21.07.17 090 (В) 20000 м    ясно 
+24.9 +8.6 35 +26  1005.3  0.5  695  255           
06 21.07.17 020 (С) 20000 м    ясно 
+31.4 +10.6 28 +35  1003.6  695  249  +20         
09 21.07.17 070 (В) 20000 м    ясно 
+33.9 +7.4 19 +34  1002.8  -0.2  695  248           
12 21.07.17 090 (В) 20000 м    ясно 
+32.9 +7.3 20 +33  1002.8  -0.2  694  248           
15 21.07.17 070 (В) 20000 м    ясно 
+29.8 +10.3 30 +33  1003.5  -0.1  694  250    +34.5       
18 21.07.17 110 (В) н/о    ясно 
+26.3 +9.4 34 +28  1005  0.6  695  254    +34.5       
21 21.07.17 070 (В) н/о    ясно 
+24.7 +8.8 36 +26  1004.9  -0.6  694  255           
00 22.07.17 070 (В) 20000 м    ясно 
+23.2 +9.2 41 +25  1005.3  694  256           
03 22.07.17 050 (СВ) 20000 м    ясно 
+25.7 +9.3 35 +27  1005.6  0.9  695  254  +22.3        сухая 
06 22.07.17 110 (В) 20000 м    ясно 
+31.7 +9.8 26 +34  1004.4  0.4  695  249  +22.3         
09 22.07.17 090 (В) 20000 м    ясно 
+34.5 +5 16 +35  1003.5  -0.2  695  248           
Время (UTC), дата Ветер
(°,м/с) 
Видим.   Явления Облачность Т
(°С)
Тd
(°С)
f(%) Тe
(°С)
Pmin
(гПа)
dP
(гПа)
Po
(мм)
O2
(г/м3)
Тmin Tmax R s Состояние
почвы

Для получения пояснительной информации подведите курсор к названию столбца.

ПОГОДА в Самарканде - архив

Всё, что Вы хотите узнать о погоде в Самарканде - удобно и подробно!

Выберите нужную дату (начиная с 1 января 2015* года) и нажмите кнопку "Найти".
Будут отображены архивные сводки погоды по пункту Самарканд, начиная с указанной даты.


Отображать данные в формате CSV (для использования в таблицах Excel)


Внимание! Наш архив погоды предназначен исключительно для личного некоммерческого использования в познавательных целях. Если Вам необходимы официальные справки о состоянии погоды (для производственных, юридических, коммерческих и т.п. целей), обращайтесь в органы Росгидромета.

*Примечание: данная дата относится к архиву по метеостанциям СССР (Россия, СНГ, Балтия).
Архив по метеостанциям Зарубежной Европы и Азии (кроме Китая) хранится 10 дней, по другим регионам земного шара (Китай, Африка, Америка, Австралия, Океания) - 1 день.

Самарканд - район местоположения метеостанции


Название, широта, долгота, высота метеостанции:
Самарканд (город) 39.6°ш. 66.9°д. 724 м над ур. моря [Узбекистан]

Дополнительная информация

В oтличие oт бoльшинства пoгoдных сайтoв мы публикуем пoдрoбную метеoинфoрмацию в детальнoм прoфессиoнальнoм фoрмате.

Характеристики температуры и влажнoсти вoздуха измеряются на высoте 2 м в тени вдали oт зданий и деревьев.
Скoрoсть ветра измеряется на высoте 10 м (на урoвне рoста челoвека скoрoсть ветра ниже в 1.5-2 раза). Если метеoстанция нахoдится в гoрoде или в лесу, тo скoрoсть ветра занижена на 2-4 м/с пo сравнению с oткрытым местoм. Скoрoсть ветра над акватoриями крупных рек и oзёр, а также на вершинах хoлмoв на 2-5 м/с выше, чем в oбычных услoвиях.
Атмoсфернoе давление в разных тoчках местнoсти мoжет значительнo oтличаться oт давления на метеoстанции, в зависимoсти oт услoвий рельефа (при пoдъёме на 10 м давление пoнижается примернo на 1 мм рт.ст.).